756  
NZUS99 KDVN 230810  
HRRRRR  
HOURLY WEATHER ROUNDUP  
NATIONAL WEATHER SERVICE QUAD CITIES IA IL  
300 AM CDT TUE MAY 23 2017  
 
NOTE: "FAIR" INDICATES FEW OR NO CLOUDS BELOW 12,000 FEET WITH  
NO SIGNIFICANT WEATHER AND/OR OBSTRUCTIONS TO VISIBILITY.  
------------------------------------------------------------------  
 
CITY SKY/WX TMP DP RH WIND PRES REMARKS  
BURLINGTON CLOUDY 57 55 93 SW10 29.83F  
CEDAR RAPIDS PTCLDY 51 51 100 SW5 29.79S  
DAVENPORT CLOUDY 56 50 80 S10 29.82F  
DUBUQUE PTCLDY 52 51 97 S8 29.77F  
IOWA CITY PTCLDY 55 50 83 SW7 29.82F  
MOLINE CLOUDY 57 50 77 SW8 29.81F  
------------------------------------------------------------------  
THE STATIONS BELOW ARE NOT NWS STATIONS AND ARE NOT SUBJECT TO NWS  
QUALITY CONTROL. SOME STATIONS DO NOT REPORT WEATHER SUCH AS FOG.  
------------------------------------------------------------------  
 
CITY SKY/WX TMP DP RH WIND PRES REMARKS  
CLINTON PTCLDY 54 52 93 SW9 29.81F  
FAIRFIELD CLOUDY 54 50 87 SW8 29.82F  
FORT MADISON CLOUDY 57 55 94 SW9 29.84F  
FREEPORT CLOUDY 55 54 95 S10 29.81F  
INDEPENDENCE PTCLDY 50 50 100 W5 29.78S WCI 48  
KEOKUK LGT RAIN 57 55 94 S13G20 29.83F  
MACOMB CLOUDY 56 55 94 SW8 29.88R  
MONTICELLO PTCLDY 52 52 100 S6 29.78F  
MT PLEASANT CLOUDY 54 52 94 SW6 29.84S  
MUSCATINE CLOUDY 55 50 82 SW8 29.82F  
SAVANNA PTCLDY 54 52 95 SE8 29.79F  
STERLING/R.F. MOCLDY 56 53 90 VRB5 29.82F  
VINTON CLOUDY 52 52 100 W3 29.78F  
WASHINGTON CLOUDY 54 52 94 SW9 29.83F  
------------------------------------------------------------------  
 
 
CLICK HERE TO GO TO PREVIOUS BULLETINS.

The Nexlab IL Page
The Nexlab IA Page
The Nexlab MO Page Main Text Page

The Nexlab IL Page
The Nexlab IA Page
The Nexlab MO Page Main Text Page